EW9154 Weather Reports


Display with metric or nautical units.
time (UTC)temp
F
wind
direction
speed
MPH
gust
MPH
rain 1hr
in
rain 24hr
in
rain mn
in
humidity
%
barometer
mb
20220808185031 77 206 0.0 0.0 0.00 1.01 0.00 54 1033.3
20220808184503 77 205 0.0 0.0 0.00 1.01 0.00 53 1033.3
20220808183953 77 236 0.0 0.0 0.00 1.01 0.00 56 1033.3
20220808183451 77 231 0.0 0.0 0.00 1.01 0.00 54 1033.3
20220808182948 78 223 0.0 0.0 0.00 1.01 0.00 54 1033.4
20220808182449 78 232 0.0 0.0 0.00 1.01 0.00 56 1033.3
20220808181923 77 232 0.0 0.0 0.00 1.01 0.00 55 1033.3
20220808181353 76 192 0.0 0.0 0.00 1.01 0.00 54 1033.3
20220808180827 77 192 0.0 2.0 0.00 1.01 0.00 58 1033.3
20220808180304 76 219 0.0 2.0 0.00 1.01 0.00 57 1033.3
20220808175805 75 37 0.0 0.0 0.00 1.01 0.00 60 1033.2
20220808175305 74 39 0.0 0.0 0.00 1.01 0.00 60 1033.2
20220808174736 73 297 0.0 0.0 0.00 1.01 0.00 63 1033.1
20220808174231 74 46 0.0 0.0 0.00 1.01 0.00 59 1033.2
20220808173705 74 58 0.0 0.0 0.00 1.01 0.00 60 1033.2
20220808173142 74 137 0.0 0.0 0.00 1.01 0.00 62 1033.1
20220808172613 73 146 0.0 0.0 0.00 1.01 0.00 61 1033.1
20220808172050 72 36 0.0 0.0 0.00 1.01 0.00 65 1033.1
20220808171523 72 36 0.0 0.0 0.00 1.01 0.00 66 1033.0
20220808171020 71 38 0.0 0.0 0.00 1.01 0.00 64 1033.1
20220808170523 72 39 0.0 0.0 0.00 1.01 0.00 63 1033.1
20220808165941 72 11 0.0 0.0 0.00 1.01 0.00 65 1033.2
20220808165440 72 11 0.0 0.0 0.00 1.01 0.00 65 1033.2
20220808164911 71 36 0.0 0.0 0.00 1.01 0.00 65 1033.2
20220808164409 71 76 0.0 0.0 0.00 1.01 0.00 66 1033.2
20220808163907 70 275 0.0 0.0 0.00 1.01 0.00 68 1033.2
20220808163353 70 42 0.0 1.0 0.00 1.01 0.00 67 1033.1
20220808162851 70 45 0.0 1.0 0.00 1.01 0.00 68 1033.1
20220808162325 70 45 0.0 0.0 0.00 1.01 0.00 69 1033.1
20220808161759 69 267 0.0 0.0 0.00 1.01 0.00 70 1033.0
20220808161232 69 41 0.0 0.0 0.00 1.01 0.00 68 1033.0
20220808160731 70 77 0.0 0.0 0.00 1.01 0.00 69 1033.0
20220808160210 70 114 0.0 0.0 0.00 1.01 0.00 72 1033.0
20220808155651 70 49 0.0 0.0 0.00 1.01 0.00 70 1032.9
20220808155150 70 42 0.0 0.0 0.00 1.01 0.00 69 1033.0
20220808154622 69 140 0.0 0.0 0.00 1.01 0.00 72 1032.9
20220808154053 69 41 0.0 0.0 0.00 1.01 0.00 73 1032.9
20220808153554 69 98 0.0 0.0 0.00 1.01 0.00 75 1032.9
20220808153036 68 30 0.0 0.0 0.00 1.02 0.00 75 1032.8
20220808152538 68 90 0.0 0.0 0.00 1.02 0.00 76 1032.8
20220808152009 67 92 0.0 0.0 0.00 1.04 0.00 79 1032.8
20220808151509 66 56 0.0 0.0 0.00 1.04 0.00 80 1032.8
20220808150939 66 51 0.0 0.0 0.00 1.04 0.00 82 1032.8
20220808150439 65 63 0.0 0.0 0.00 1.04 0.00 84 1032.8
20220808145920 65 63 0.0 0.0 0.00 1.04 0.00 84 1032.8
20220808145424 64 168 0.0 0.0 0.00 1.04 0.00 86 1032.8
20220808144855 64 169 0.0 0.0 0.00 1.04 0.00 88 1032.8
20220808144354 63 169 0.0 0.0 0.00 1.05 0.00 89 1032.8
20220808143828 62 169 0.0 0.0 0.00 1.06 0.00 90 1032.7
20220808143302 62 160 0.0 1.0 0.00 1.06 0.00 91 1032.7
20220808142741 62 196 0.0 1.0 0.00 1.06 0.00 93 1032.7
20220808142202 61 247 0.0 0.0 0.00 1.06 0.00 94 1032.7
20220808141655 61 245 0.0 0.0 0.00 1.06 0.00 94 1032.8
20220808141152 61 245 0.0 0.0 0.00 1.06 0.00 95 1032.8
20220808140625 61 167 0.0 0.0 0.00 1.06 0.00 96 1032.8
20220808140110 60 165 0.0 0.0 0.00 1.06 0.00 96 1032.9
20220808135609 60 165 0.0 0.0 0.00 1.06 0.00 97 1032.9
20220808135112 59 76 0.0 0.0 0.00 1.06 0.00 97 1032.9
20220808134548 59 67 0.0 0.0 0.00 1.06 0.00 96 1033.0
20220808134016 58 205 0.0 0.0 0.00 1.06 0.00 97 1033.0
20220808133447 58 207 0.0 0.0 0.00 1.06 0.00 97 1032.9
20220808132946 58 186 0.0 0.0 0.00 1.06 0.00 96 1032.9
20220808132430 58 76 0.0 0.0 0.00 1.06 0.00 97 1032.9
20220808131931 58 76 0.0 0.0 0.00 1.06 0.00 97 1032.9
20220808131403 58 90 0.0 0.0 0.00 1.06 0.00 97 1032.9
20220808130859 58 90 0.0 0.0 0.00 1.06 0.00 97 1032.9
20220808130356 58 51 0.0 0.0 0.00 1.06 0.00 97 1032.9
20220808125854 58 48 0.0 0.0 0.00 1.06 0.00 97 1032.8
20220808125352 57 61 0.0 0.0 0.00 1.06 0.00 97 1032.8
20220808124825 57 61 0.0 0.0 0.00 1.06 0.00 97 1032.8
20220808124326 57 60 0.0 0.0 0.00 1.06 0.00 97 1032.8
20220808123800 57 60 0.0 0.0 0.00 1.06 0.00 97 1032.7
20220808123234 57 62 0.0 0.0 0.00 1.06 0.00 97 1032.7
20220808122721 57 62 0.0 0.0 0.00 1.06 0.00 97 1032.6
20220808122218 57 63 0.0 0.0 0.00 1.06 0.00 97 1032.5
20220808121719 57 62 0.0 0.0 0.00 1.06 0.00 97 1032.4
20220808121159 57 62 0.0 0.0 0.00 1.06 0.00 97 1032.3
20220808120638 57 62 0.0 0.0 0.00 1.06 0.00 97 1032.2
20220808120137 57 62 0.0 0.0 0.00 1.06 0.00 97 1032.1
20220808115636 57 62 0.0 0.0 0.00 1.06 0.00 97 1032.0
20220808115134 57 113 0.0 0.0 0.00 1.06 0.00 97 1032.0
20220808114607 57 113 0.0 0.0 0.00 1.06 0.00 97 1031.7
20220808114103 57 103 0.0 0.0 0.00 1.06 0.00 97 1031.6
20220808113606 57 21 0.0 0.0 0.00 1.06 0.00 97 1031.7
20220808113042 57 20 0.0 0.0 0.00 1.06 0.00 97 1031.7
20220808112513 57 20 0.0 0.0 0.00 1.06 0.00 96 1031.6
20220808112010 57 20 0.0 0.0 0.00 1.06 0.00 97 1031.6
20220808111449 57 20 0.0 0.0 0.00 1.06 0.00 96 1031.6
20220808110937 57 20 0.0 0.0 0.00 1.06 0.00 96 1031.5
20220808110437 57 22 0.0 0.0 0.00 1.06 0.00 96 1031.5
20220808105933 57 22 0.0 0.0 0.00 1.06 0.00 96 1031.4
20220808105432 58 21 0.0 0.0 0.00 1.06 0.00 97 1031.3
20220808104906 58 21 0.0 0.0 0.00 1.06 0.00 97 1031.3
20220808104405 58 21 0.0 0.0 0.00 1.06 0.00 97 1031.3
20220808103835 58 20 0.0 0.0 0.00 1.06 0.00 97 1031.2
20220808103335 58 20 0.0 0.0 0.00 1.06 0.00 96 1031.2
20220808102836 58 32 0.0 0.0 0.00 1.06 0.00 96 1031.1
20220808102334 58 32 0.0 0.0 0.00 1.06 0.00 96 1031.0
20220808101817 58 66 0.0 1.0 0.00 1.06 0.00 96 1030.9
20220808101318 58 60 0.0 1.0 0.00 1.06 0.00 97 1030.9
20220808100816 58 60 0.0 1.0 0.00 1.06 0.00 96 1031.0
20220808100317 58 49 0.0 1.0 0.00 1.06 0.00 97 1030.9
20220808095810 58 48 0.0 0.0 0.00 1.06 0.00 96 1030.9
20220808095311 59 48 0.0 0.0 0.00 1.06 0.00 96 1030.9
20220808094807 59 48 0.0 0.0 0.00 1.06 0.00 96 1030.8
20220808094309 59 48 0.0 0.0 0.00 1.06 0.00 97 1030.8
20220808093809 59 63 0.0 0.0 0.00 1.06 0.00 97 1030.6
20220808093247 59 51 0.0 0.0 0.00 1.06 0.00 97 1030.6
20220808092743 59 52 0.0 0.0 0.00 1.06 0.00 97 1030.5
20220808092236 59 52 0.0 0.0 0.00 1.06 0.00 97 1030.4
20220808091733 59 76 0.0 0.0 0.00 1.06 0.00 96 1030.4
20220808091232 59 76 0.0 0.0 0.00 1.06 0.00 96 1030.4
20220808090707 59 76 0.0 0.0 0.00 1.06 0.00 97 1030.5
20220808090205 59 76 0.0 0.0 0.00 1.06 0.00 96 1030.5
20220808085705 59 76 0.0 0.0 0.00 1.06 0.00 96 1030.4
20220808085140 59 155 0.0 0.0 0.00 1.06 0.00 96 1030.4
20220808084612 59 155 0.0 0.0 0.00 1.06 0.00 96 1030.3
20220808084112 59 155 0.0 0.0 0.00 1.06 0.00 96 1030.3
20220808083608 59 155 0.0 0.0 0.00 1.06 0.00 96 1030.2
20220808083042 59 155 0.0 1.0 0.00 1.06 0.00 96 1030.2
20220808082523 59 155 0.0 1.0 0.00 1.06 0.00 96 1030.1
20220808081958 60 190 0.0 0.0 0.00 1.06 0.00 96 1030.0
20220808081440 60 158 0.0 0.0 0.00 1.06 0.00 96 1029.9
20220808080943 60 159 0.0 0.0 0.00 1.06 0.00 96 1029.9
20220808080412 60 159 0.0 0.0 0.00 1.06 0.00 96 1029.9
20220808075850 60 164 0.0 0.0 0.00 1.06 0.00 96 1029.9
20220808075320 60 163 0.0 0.0 0.00 1.06 0.00 96 1029.9
20220808074819 59 163 0.0 0.0 0.00 1.06 0.00 96 1029.9
20220808074252 59 164 0.0 0.0 0.00 1.06 0.00 96 1029.9
20220808073731 59 164 0.0 0.0 0.00 1.06 0.00 96 1029.8
20220808073226 60 61 0.0 0.0 0.00 1.06 0.00 96 1029.6
20220808072724 60 61 0.0 0.0 0.00 1.06 0.00 96 1029.6
20220808072200 60 61 0.0 0.0 0.00 1.06 0.00 96 1029.6
20220808071641 60 61 0.0 0.0 0.00 1.06 0.00 96 1029.6
20220808071143 60 57 0.0 0.0 0.00 1.06 0.00 96 1029.6
20220808070641 60 57 0.0 1.0 0.00 1.06 0.00 96 1029.7
20220808070139 60 56 0.0 1.0 0.00 1.06 0.00 96 1029.7
20220808065613 60 44 0.0 1.0 0.00 1.06 0.00 96 1029.9
20220808065046 60 43 0.0 0.0 0.00 1.06 0.00 96 1029.9
20220808064526 60 42 0.0 0.0 0.00 1.06 0.00 96 1029.9
20220808064000 60 42 0.0 0.0 0.00 1.06 0.00 96 1029.9
20220808063503 60 36 0.0 0.0 0.00 1.06 0.00 96 1029.8
20220808062938 60 36 0.0 0.0 0.00 1.06 0.00 96 1029.8
20220808062423 60 36 0.0 0.0 0.00 1.06 0.00 96 1029.7
20220808061924 60 36 0.0 0.0 0.00 1.06 0.00 96 1029.7
20220808061421 60 36 0.0 0.0 0.00 1.06 0.00 96 1029.8
20220808060919 60 36 0.0 0.0 0.00 1.06 0.00 96 1029.8
20220808060420 61 36 0.0 0.0 0.00 1.06 0.00 96 1030.0
20220808055857 61 36 0.0 0.0 0.00 1.06 0.00 96 1029.9
20220808055328 61 36 0.0 0.0 0.00 1.06 0.00 96 1030.0
20220808054827 61 26 0.0 0.0 0.00 1.06 0.00 96 1030.0
20220808054258 61 26 0.0 1.0 0.00 1.06 0.00 96 1030.0
20220808053755 61 26 0.0 1.0 0.01 1.06 0.00 96 1029.8
20220808053244 61 328 0.0 0.0 0.01 1.06 0.00 96 1029.9
20220808052742 62 34 0.0 0.0 0.02 1.06 0.00 96 1030.0
20220808052214 62 56 0.0 0.0 0.04 1.06 0.00 96 1029.9
20220808051714 62 40 0.0 0.0 0.05 1.06 0.00 96 1029.8
20220808051146 62 39 0.0 0.0 0.08 1.06 0.00 96 1029.9
20220808050640 62 41 0.0 0.0 0.10 1.06 0.00 96 1030.0
20220808050134 62 40 0.0 0.0 0.11 1.06 0.00 96 1029.9
20220808045604 62 40 0.0 0.0 0.12 1.06 1.06 96 1029.8
20220808045102 62 40 0.0 0.0 0.12 1.06 1.06 95 1029.8
20220808044558 62 45 0.0 1.0 0.13 1.06 1.06 95 1029.9
20220808044059 62 57 0.0 1.0 0.14 1.06 1.06 96 1029.9
20220808043554 62 44 0.0 0.0 0.16 1.05 1.05 96 1030.0
20220808043057 63 45 0.0 0.0 0.26 1.04 1.04 95 1030.2
20220808042531 63 57 0.0 0.0 0.30 1.03 1.04 95 1030.4
20220808042005 63 56 0.0 1.0 0.37 1.02 1.02 95 1030.3
20220808041501 63 40 0.0 1.0 0.38 1.00 1.01 95 1030.3
20220808040959 63 42 0.0 1.0 0.43 0.97 0.97 95 1030.4
20220808040430 64 250 0.0 0.0 0.46 0.95 0.96 95 1030.6
20220808035908 64 84 0.0 1.0 0.57 0.94 0.95 95 1030.5
20220808035407 64 41 0.0 5.0 0.68 0.94 0.94 95 1030.5
20220808034841 64 350 0.0 5.0 0.72 0.94 0.94 95 1030.6
20220808034316 64 312 0.0 1.0 0.76 0.93 0.93 95 1030.6
20220808033746 64 205 0.0 1.0 0.77 0.90 0.91 95 1030.4
20220808033227 65 68 0.0 0.0 0.71 0.82 0.85 95 1030.3
20220808032727 65 162 0.0 0.0 0.64 0.75 0.75 95 1030.5
20220808032223 65 182 0.0 1.0 0.58 0.69 0.70 95 1030.4
20220808031658 65 37 0.0 1.0 0.51 0.62 0.63 95 1029.8
20220808031155 65 43 0.0 0.0 0.46 0.57 0.59 94 1030.4
20220808030651 65 43 0.0 0.0 0.40 0.50 0.51 94 1030.0
20220808030123 65 34 0.0 5.0 0.32 0.42 0.43 94 1030.0
20220808025612 65 50 0.0 5.0 0.21 0.30 0.30 94 1029.8
20220808025111 65 28 0.0 1.0 0.19 0.24 0.24 94 1029.6
20220808024602 65 48 0.0 1.0 0.15 0.20 0.20 94 1029.3
20220808024101 66 38 0.0 4.0 0.11 0.16 0.16 93 1029.6
20220808023556 66 102 0.0 10.0 0.06 0.11 0.12 93 1029.7
20220808023052 66 38 0.0 10.0 0.06 0.11 0.11 93 1030.0
20220808022534 67 350 0.0 3.0 0.06 0.11 0.11 93 1030.0
20220808022035 67 48 0.0 1.0 0.06 0.11 0.11 92 1029.8
20220808021504 67 46 0.0 4.0 0.06 0.11 0.11 92 1029.4
20220808021003 67 47 0.0 4.0 0.06 0.11 0.11 91 1029.3
20220808020435 68 19 0.0 0.0 0.05 0.10 0.10 91 1029.4
20220808015918 68 133 0.0 1.0 0.04 0.09 0.09 90 1029.4
20220808015420 69 115 0.0 3.0 0.02 0.07 0.08 89 1029.4
20220808014855 70 22 0.0 3.0 0.00 0.05 0.05 88 1029.3
20220808014326 70 56 0.0 0.0 0.00 0.05 0.05 87 1029.2
20220808013758 70 39 0.0 0.0 0.00 0.05 0.05 87 1028.8
20220808013228 71 39 0.0 0.0 0.00 0.05 0.05 86 1028.5
20220808012727 71 39 0.0 0.0 0.00 0.05 0.05 85 1028.4
20220808012226 71 39 0.0 0.0 0.00 0.05 0.05 85 1028.5
20220808011725 71 40 0.0 0.0 0.00 0.05 0.05 85 1028.5
20220808011156 71 17 0.0 0.0 0.00 0.05 0.05 85 1028.4
20220808010655 71 0 0.0 0.0 0.00 0.05 0.05 85 1028.4
20220808010126 71 0 0.0 0.0 0.00 0.05 0.05 85 1028.2
20220808005622 72 355 0.0 0.0 0.00 0.05 0.05 85 1028.1
20220808005108 72 0 0.0 0.0 0.00 0.05 0.05 85 1028.0
20220808004605 72 28 0.0 0.0 0.00 0.05 0.05 84 1028.1
20220808004106 72 28 0.0 0.0 0.00 0.05 0.05 83 1028.2
20220808003552 72 32 0.0 0.0 0.00 0.05 0.05 83 1028.2
20220808003053 73 32 0.0 0.0 0.00 0.05 0.05 82 1028.2
20220808002526 73 38 0.0 0.0 0.00 0.05 0.05 81 1028.2
20220808002008 73 38 0.0 0.0 0.00 0.05 0.05 81 1028.2
20220808001507 73 38 0.0 0.0 0.00 0.05 0.05 81 1028.2
20220808000947 73 38 0.0 0.0 0.00 0.05 0.05 81 1028.3
20220808000408 73 38 0.0 0.0 0.00 0.05 0.05 81 1028.3
20220807235907 73 39 0.0 0.0 0.00 0.05 0.05 81 1028.4
20220807235350 73 39 0.0 0.0 0.00 0.05 0.05 80 1028.6
20220807234853 73 39 0.0 0.0 0.00 0.05 0.05 80 1028.7
20220807234339 74 39 0.0 0.0 0.00 0.05 0.05 81 1028.9
20220807233843 74 39 0.0 0.0 0.00 0.05 0.05 81 1028.9
20220807233330 74 39 0.0 0.0 0.00 0.05 0.05 80 1028.9
20220807232834 74 39 0.0 0.0 0.00 0.05 0.05 79 1029.0
20220807232312 74 39 0.0 0.0 0.00 0.05 0.05 79 1029.1
20220807231812 74 39 0.0 0.0 0.00 0.05 0.05 79 1029.2
20220807231312 74 39 0.0 0.0 0.00 0.05 0.05 79 1029.3
20220807230747 74 39 0.0 0.0 0.00 0.05 0.05 79 1029.2
20220807230218 74 39 0.0 0.0 0.00 0.05 0.05 79 1029.1
20220807225650 74 39 0.0 0.0 0.00 0.05 0.05 79 1029.2
20220807225146 74 39 0.0 0.0 0.00 0.05 0.05 80 1029.3
20220807224634 74 39 0.0 0.0 0.00 0.05 0.05 80 1029.2
20220807224108 74 39 0.0 0.0 0.00 0.05 0.05 79 1029.3
20220807223603 74 39 0.0 0.0 0.00 0.05 0.05 80 1029.3
20220807223059 74 39 0.0 0.0 0.00 0.05 0.05 79 1029.4
20220807222533 74 39 0.0 0.0 0.00 0.05 0.05 78 1029.6
20220807222008 74 39 0.0 0.0 0.00 0.05 0.05 79 1029.6
20220807221457 74 39 0.0 0.0 0.00 0.05 0.05 79 1029.7
20220807220953 74 39 0.0 0.0 0.00 0.05 0.05 78 1029.7
20220807220429 75 40 0.0 0.0 0.00 0.05 0.05 77 1029.7
20220807215906 75 40 0.0 0.0 0.00 0.05 0.05 77 1029.7
20220807215404 75 39 0.0 0.0 0.00 0.05 0.05 77 1029.9
20220807214843 75 39 0.0 0.0 0.00 0.05 0.05 77 1029.9
20220807214316 75 39 0.0 0.0 0.00 0.05 0.05 77 1029.9
20220807213814 75 39 0.0 0.0 0.00 0.05 0.05 77 1029.9
20220807213313 75 40 0.0 0.0 0.00 0.05 0.05 76 1030.0
20220807212814 76 41 0.0 0.0 0.00 0.05 0.05 75 1030.0
20220807212249 76 41 0.0 0.0 0.00 0.05 0.05 75 1030.0
20220807211729 76 41 0.0 0.0 0.00 0.05 0.05 76 1030.1
20220807211201 76 41 0.0 0.0 0.00 0.05 0.05 75 1030.0
20220807210705 76 43 0.0 0.0 0.00 0.05 0.05 76 1030.0
20220807210150 76 43 0.0 0.0 0.00 0.05 0.05 76 1030.0
20220807205651 76 43 0.0 0.0 0.00 0.05 0.05 76 1030.2
20220807205136 75 46 0.0 0.0 0.00 0.05 0.05 75 1030.2
20220807204637 76 46 0.0 0.0 0.00 0.05 0.05 75 1030.2
20220807204110 76 33 0.0 0.0 0.00 0.05 0.05 75 1030.0
20220807203614 75 34 0.0 0.0 0.00 0.05 0.05 76 1029.9
20220807203048 75 34 0.0 0.0 0.00 0.05 0.05 76 1029.9
20220807202531 75 34 0.0 0.0 0.00 0.05 0.05 75 1030.0
20220807202034 75 54 0.0 1.0 0.00 0.05 0.05 76 1029.8
20220807201515 76 40 0.0 1.0 0.00 0.05 0.05 76 1029.8
20220807200940 75 44 0.0 1.0 0.00 0.05 0.05 76 1029.7
20220807200441 74 18 0.0 1.0 0.00 0.05 0.05 77 1029.8
20220807195920 74 119 0.0 3.0 0.00 0.05 0.05 79 1029.4
20220807195422 74 96 0.0 6.0 0.00 0.05 0.05 79 1028.9
20220807194859 73 60 0.0 6.0 0.00 0.05 0.05 80 1029.1
20220807194402 72 111 0.0 1.0 0.00 0.05 0.05 83 1029.7
20220807193827 71 355 0.0 0.0 0.00 0.05 0.05 84 1030.1
20220807193308 71 355 0.0 0.0 0.00 0.05 0.05 84 1030.4
20220807192806 71 355 0.0 0.0 0.00 0.05 0.05 84 1030.5
20220807192307 71 355 0.0 0.0 0.00 0.05 0.05 84 1030.6
20220807191749 71 355 0.0 0.0 0.00 0.05 0.05 84 1030.6
20220807191247 71 355 0.0 0.0 0.00 0.05 0.05 83 1030.5
20220807190730 71 355 0.0 0.0 0.00 0.05 0.05 83 1030.7
20220807190232 71 37 0.0 0.0 0.00 0.05 0.05 84 1030.7
20220807185714 71 38 0.0 0.0 0.00 0.05 0.05 84 1030.7